Regional Weather Roundup
Issued by NWS

Home | Current Version | Previous Version | Text Only | Print | Product List | Glossary On
Versions: 1 2 3 4 5 6 7 8 9 10 11 12 13 14 15 16 17 18 19 20 21 22 23 24 25 26 27 28 29 30 31 32 33 34 35 36 37 38 39 40 41 42 43 44 45 46 47 48 49 50
000
ASUS44 KJAN 261210
RWRMS

MISSISSIPPI HOURLY WEATHER ROUNDUP
NATIONAL WEATHER SERVICE JACKSON MS
600 AM CST MON JAN 26 2015

NOTE: "FAIR: INDICATES FEW OR NO CLOUDS BELOW 12,000 FEET WITH NO
SIGNIFICANT WEATHER AND/OR OBSTRUCTIONS TO VISIBILITY.

MSZ001>002-007>008-010>013-018>021-025>028-034>036-261300-
NORTHWEST MISSISSIPPI

CITY           SKY/WX    TMP DP  RH WIND       PRES   REMARKS
CLARKSDALE     CLOUDY    39  36  87 NW8       30.10R WCI  34
CLEVELAND      CLOUDY    42  37  83 N9        30.09R
GREENWOOD      CLOUDY    42  33  70 NW10G23   30.07R
6HR MIN TEMP:  42; 6HR MAX TEMP:  47;

GREENVILLE     CLOUDY    43  34  70 NW14      30.09R
6HR MIN TEMP:  43; 6HR MAX TEMP:  48;

GRENADA        CLOUDY    39  32  75 NW12      30.06R WCI  32
OLIVE BRANCH   CLOUDY    36  34  93 N13       30.06R WCI  27
OXFORD         CLOUDY    37  30  75 N12G23    30.06R WCI  30
TUNICA         PTSUNNY   37  32  81 N14       30.09R WCI  29
$$

MSZ003>006-009-014>017-022>024-029>033-037>039-261300-
NORTHEAST MISSISSIPPI

CITY           SKY/WX    TMP DP  RH WIND       PRES   REMARKS
COLUMBUS AFB   CLOUDY    42  33  70 NW17      29.99R
6HR MIN TEMP:  42; 6HR MAX TEMP:  45;

CORINTH        CLOUDY    37  32  81 NW10G23   30.00R WCI  30
GOLDN TRIANGLE CLOUDY    43  34  70 NW14      29.98R
STARKVILLE     CLOUDY    43  36  75 NW6       30.00R
TUPELO         CLOUDY    40  32  73 N9        30.02R WCI  34
6HR MIN TEMP:  40; 6HR MAX TEMP:  44;

$$

MSZ040-058-261300-
CENTRAL MISSISSIPPI

CITY           SKY/WX    TMP DP  RH WIND       PRES   REMARKS
JACKSON INTL   CLOUDY    46  34  62 NW15G21   30.06R
6HR MIN TEMP:  46; 6HR MAX TEMP:  49;

JACKSON HAWKNS CLOUDY    46  34  62 NW12G18   30.06R
6HR MIN TEMP:  45; 6HR MAX TEMP:  49;

MERIDIAN KEY   CLOUDY    45  35  68 NW8       30.01R
6HR MIN TEMP:  45; 6HR MAX TEMP:  49;

MERIDIAN NAS   CLOUDY    45  35  68 NW14      29.99S
6HR MIN TEMP:  45; 6HR MAX TEMP:  49;

RAYMOND        CLOUDY    46  41  81 NW9       30.07R
VICKSBURG      CLOUDY    44  35  70 NW8       30.09S
6HR MIN TEMP:  40; 6HR MAX TEMP:  50;

$$

MSZ059>079-261300-
SOUTH MISSISSIPPI

CITY           SKY/WX    TMP DP  RH WIND       PRES   REMARKS
BROOKHAVEN     FAIR      43  34  70 NW6       30.06F
HATTIESBURG    CLEAR     45  34  65 NW10      30.04S
6HR MIN TEMP:  44; 6HR MAX TEMP:  54;

MCCOMB         CLEAR     42  32  67 NW8       30.06R
6HR MIN TEMP:  42; 6HR MAX TEMP:  52;

NATCHEZ        CLEAR     43  30  61 NW5       30.10R
6HR MIN TEMP:  43; 6HR MAX TEMP:  50;

PINE BELT      MOCLDY    43  32  65 W5        30.04S
6HR MIN TEMP:  43; 6HR MAX TEMP:  48;

$$

MSZ080>082-261300-
COASTAL MISSISSIPPI

CITY           SKY/WX    TMP DP  RH WIND       PRES   REMARKS
BILOXI         CLEAR     44  36  73 VRB1      30.03R
6HR MIN TEMP:  44; 6HR MAX TEMP:  52;

PASCAGOULA     CLEAR     46  34  62 NW7       30.03R
6HR MIN TEMP:  42; 6HR MAX TEMP:  51;

GULFPORT       CLEAR     43  35  73 NW5       30.03R
6HR MIN TEMP:  41; 6HR MAX TEMP:  53;

$$


USA.gov is the U.S. government's official web portal to all federal, state and local government web resources and services.